Regional Weather Roundup
Issued by NWS

Home | Current Version | Previous Version | Graphics & Text | Print | Product List | Glossary On
Versions: 1 2 3 4 5 6 7 8 9 10 11 12 13 14 15 16 17 18 19 20 21 22 23 24 25 26 27 28 29 30 31 32 33 34 35 36 37 38 39 40 41 42 43 44 45 46 47 48 49 50
000
ASUS43 KFSD 262310
RWRSD

WEATHER ROUNDUP FOR SOUTH DAKOTA
NATIONAL WEATHER SERVICE SIOUX FALLS SD
600 PM CDT SAT MAY 26 2018

NOTE: "FAIR" INDICATES FEW OR NO CLOUDS BELOW 12,000 FEET WITH NO
SIGNIFICANT WEATHER AND/OR OBSTRUCTIONS TO VISIBILITY.


SDZ001>005-009-010-012>017-270000-
NORTHWEST AND NORTH CENTRAL SOUTH DAKOTA

CITY           SKY/WX    TMP DP  RH WIND       PRES   REMARKS
BUFFALO          N/A     89  56  32 SE17G31   29.66S
FAITH            N/A     87  61  41 E15G23    29.72F
MOBRIDGE       SUNNY     91  59  33 E3        29.70F
$$

SDZ012>016-024>037-041>051-057-063-072>074-270000-
SOUTHWEST AND SOUTH CENTRAL SOUTH DAKOTA

CITY           SKY/WX    TMP DP  RH WIND       PRES   REMARKS
RAPID CTY ARPT SUNNY     88  65  46 S13       29.71F
PIERRE         SUNNY     89  63  41 SE14      29.69F
CUSTER         SUNNY     82  40  22 SE7       29.89F
ELLSWORTH AFB  SUNNY     89  63  42 S15       29.71S
PHILIP         SUNNY     90  63  40 SE15G21   29.68F
PINE RIDGE     SUNNY     93  51  23 S13G22    29.73F
SPEARFISH      LGT RAIN  86  66  51 NE10      29.74F
WINNER         FAIR      90  66  45 SE12      29.73F
$$

SDZ004>011-016>023-039-040-270000-
NORTHEAST SOUTH DAKOTA

CITY           SKY/WX    TMP DP  RH WIND       PRES   REMARKS
ABERDEEN       SUNNY     97  51  21 N9        29.71S
WATERTOWN      SUNNY     89  56  32 N6        29.75F
BROOKINGS      SUNNY     91  56  30 NW6       29.76S
SISSETON         N/A     94  47  20 W13G18    29.69F
$$

SDZ017-020-022-023-036>040-048>070-270000-
SOUTHEAST SOUTH DAKOTA

CITY           SKY/WX    TMP DP  RH WIND       PRES   REMARKS
SIOUX FALLS    MOSUNNY   91  59  33 W6        29.74F
HURON          SUNNY     92  60  34 VRB5      29.71F
CHAMBERLAIN    SUNNY     92  65  40 S8        29.73F
MITCHELL       SUNNY     93  62  35 CALM      29.72F
YANKTON        SUNNY     95  52  23 CALM      29.74F
$$

ABBREVIATIONS USED IN REMARKS
   TC - TEMPERATURE IN CELSIUS
  WCI - WIND CHILL INDEX
   HX - HEAT INDEX
  VSB - VISIBILITY





USA.gov is the U.S. government's official web portal to all federal, state and local government web resources and services.